820  
NZUS99 KDVN 181710  
HRRRRR  
HOURLY WEATHER ROUNDUP  
NATIONAL WEATHER SERVICE QUAD CITIES IA IL  
1200 PM CDT TUE SEP 18 2018  
 
NOTE: "FAIR" INDICATES FEW OR NO CLOUDS BELOW 12,000 FEET WITH  
NO SIGNIFICANT WEATHER AND/OR OBSTRUCTIONS TO VISIBILITY.  
------------------------------------------------------------------  
 
CITY SKY/WX TMP DP RH WIND PRES REMARKS  
BURLINGTON PTSUNNY 88 67 49 SW12 29.94F HAZE HX 91  
CEDAR RAPIDS TSTM 65 63 93 NE21 30.06R FOG  
DAVENPORT PTSUNNY 71 64 78 N22G33 30.04R  
DUBUQUE RAIN 63 62 97 N7 30.11R FOG  
IOWA CITY LGT RAIN 65 63 93 NE29G40 30.03R  
MOLINE CLOUDY 80 67 64 NE12 29.98R HX 82  
------------------------------------------------------------------  
THE STATIONS BELOW ARE NOT NWS STATIONS AND ARE NOT SUBJECT TO NWS  
QUALITY CONTROL. SOME STATIONS DO NOT REPORT WEATHER SUCH AS FOG.  
* - STATIONS THAT REPORT TMP AND DP IN WHOLE DEGREES CELSIUS, WHICH  
ARE THEN CONVERTED TO FAHRENHEIT.  
------------------------------------------------------------------  
 
CITY SKY/WX TMP DP RH WIND PRES REMARKS  
CLINTON CLOUDY 68 65 90 N17G25 30.04R  
FAIRFIELD * MOSUNNY 84 70 61 SW7G14 29.94S HX 88  
FORT MADISON * MOSUNNY 88 72 58 S5 29.95F HX 94  
FREEPORT LGT RAIN 66 66 100 N8 30.06R  
INDEPENDENCE * LGT RAIN 64 63 96 E15G23 30.04F  
KEOKUK * SUNNY 88 70 55 SW5 29.95S HX 92  
MACOMB CLOUDY 86 66 50 S7 29.97F HX 89  
MONTICELLO * RAIN 64 64 100 NE9G15 30.08R  
MT PLEASANT MOSUNNY 90 70 51 SW9 29.93F HX 95  
MUSCATINE * PTSUNNY 81 68 65 NE26G38 29.95R HX 83  
SAVANNA HVY RAIN 66 64 94 N10G17 30.07R  
STERLING/R.F. CLOUDY 79 67 66 NE9 30.01R HX 81  
VINTON * LGT RAIN 65 63 94 NE16G23 30.03F  
WASHINGTON * CLOUDY 68 68 100 NE23G31 29.99R FOG  
------------------------------------------------------------------  
 
 
CLICK HERE TO GO TO PREVIOUS BULLETINS.

The Nexlab IL Page
The Nexlab IA Page
The Nexlab MO Page Main Text Page